Weather reports worldwide

Advertisment
Writtle, United Kingdom (99127): temperature & dewpoint: 04.07.2020 04:00:00 - 10.07.2020 04:00:00 (BST)Writtle, United Kingdom (99127): temperature -20cm: 04.07.2020 04:00:00 - 10.07.2020 04:00:00 (BST)Writtle, United Kingdom (99127): precipitation: 04.07.2020 04:00:00 - 10.07.2020 04:00:00 (BST)
Date & Time tt [°C] td [°C] tt -20cm [°C] rr [mm]
10.07.2020 04:00:00 13,3 12,6 - 0,0
10.07.2020 03:00:00 13,6 13,0 - 0,0
10.07.2020 02:00:00 13,6 13,1 - 0,0
10.07.2020 01:00:00 14,0 13,5 - 0,2
10.07.2020 00:00:00 14,9 14,4 - 0,2
09.07.2020 23:00:00 15,3 14,8 - 0,2
09.07.2020 22:00:00 15,7 15,1 - 0,6
09.07.2020 21:00:00 16,1 15,1 - 0,2
09.07.2020 20:00:00 17,6 16,5 - 0,0
09.07.2020 19:00:00 17,6 16,3 - 0,0
09.07.2020 18:00:00 18,0 16,2 - 0,0
09.07.2020 17:00:00 17,6 16,3 - 0,2
09.07.2020 16:00:00 18,5 17,0 - 0,0
09.07.2020 15:00:00 18,1 15,8 - 0,0
09.07.2020 14:00:00 19,6 15,0 - 0,0
09.07.2020 13:00:00 19,8 15,0 - 0,0
09.07.2020 12:00:00 20,2 15,5 - 0,0
09.07.2020 11:00:00 18,7 15,2 - 0,0
09.07.2020 10:00:00 17,4 14,7 16,4 0,0
09.07.2020 09:00:00 17,0 14,7 - 0,0
09.07.2020 08:00:00 16,2 14,5 - 0,0
09.07.2020 07:00:00 15,9 14,8 - 0,0
09.07.2020 06:00:00 16,0 15,1 - 2,2
09.07.2020 05:00:00 16,2 15,5 - 0,0
09.07.2020 04:00:00 16,4 15,7 - 0,8
09.07.2020 03:00:00 16,7 15,9 - 0,4
09.07.2020 02:00:00 16,8 16,1 - 0,2
09.07.2020 01:00:00 16,7 15,8 - 0,0
09.07.2020 00:00:00 16,6 15,9 - 0,2
08.07.2020 23:00:00 16,6 15,8 - 0,0
08.07.2020 22:00:00 16,6 15,8 - 0,0
08.07.2020 21:00:00 16,7 15,8 - 1,0
08.07.2020 20:00:00 17,1 15,8 - 0,8
08.07.2020 19:00:00 17,7 15,8 - 0,2
08.07.2020 18:00:00 18,3 15,1 - 0,0
08.07.2020 17:00:00 19,3 15,0 - 0,0
08.07.2020 16:00:00 17,8 15,6 - 0,2
08.07.2020 15:00:00 18,7 16,0 - 0,0
08.07.2020 14:00:00 17,3 15,9 - 0,0
08.07.2020 13:00:00 19,3 15,0 - 0,0
08.07.2020 12:00:00 18,4 15,4 - 0,0
08.07.2020 11:00:00 17,6 15,4 - 0,0
08.07.2020 10:00:00 16,5 15,2 16,0 0,0
08.07.2020 09:00:00 15,8 15,0 - 0,0
08.07.2020 08:00:00 15,2 14,6 - 0,8
08.07.2020 07:00:00 14,6 14,0 - 1,2
08.07.2020 06:00:00 14,4 13,9 - 0,4
08.07.2020 05:00:00 14,2 13,8 - 0,2
08.07.2020 04:00:00 14,0 13,6 - 0,0
08.07.2020 03:00:00 13,7 13,3 - 0,4
08.07.2020 02:00:00 13,7 13,3 - 0,8
08.07.2020 01:00:00 13,6 13,2 - 1,4
08.07.2020 00:00:00 13,4 12,9 - 1,8
07.07.2020 23:00:00 13,2 12,6 - 0,4
07.07.2020 22:00:00 13,0 12,3 - 0,4
07.07.2020 21:00:00 13,2 12,0 - 0,2
07.07.2020 20:00:00 14,7 11,0 - 0,0
07.07.2020 19:00:00 16,7 8,7 - 0,0
07.07.2020 18:00:00 17,5 8,2 - 0,0
07.07.2020 17:00:00 18,0 8,0 - 0,0
07.07.2020 16:00:00 18,8 7,6 - 0,0
07.07.2020 15:00:00 19,5 7,9 - 0,0
07.07.2020 14:00:00 20,2 8,5 - 0,0
07.07.2020 13:00:00 19,4 7,6 - 0,0
07.07.2020 12:00:00 19,6 8,8 - 0,0
07.07.2020 11:00:00 19,4 8,2 - 0,0
07.07.2020 10:00:00 18,2 8,1 16,0 0,0
07.07.2020 09:00:00 17,0 8,3 - 0,0
07.07.2020 08:00:00 15,7 9,5 - 0,0
07.07.2020 07:00:00 13,1 8,7 - 0,0
07.07.2020 06:00:00 9,6 8,2 - 0,0
07.07.2020 05:00:00 8,8 7,4 - 0,0
07.07.2020 04:00:00 8,3 7,1 - 0,0
07.07.2020 03:00:00 8,2 6,0 - 0,0
07.07.2020 02:00:00 10,0 6,3 - 0,0
07.07.2020 01:00:00 8,7 5,3 - 0,0
07.07.2020 00:00:00 10,5 5,7 - 0,0
06.07.2020 23:00:00 11,5 5,7 - 0,0
06.07.2020 22:00:00 13,7 5,6 - 0,0
06.07.2020 21:00:00 15,8 7,7 - 0,0
06.07.2020 20:00:00 18,0 7,9 - 0,0
06.07.2020 19:00:00 19,3 7,2 - 0,0
06.07.2020 18:00:00 19,3 7,7 - 0,0
06.07.2020 17:00:00 19,5 8,7 - 0,0
06.07.2020 16:00:00 18,0 8,3 - 0,0
06.07.2020 15:00:00 16,8 7,7 - 0,0
06.07.2020 14:00:00 15,6 8,9 - 0,0
06.07.2020 13:00:00 17,0 7,8 - 0,0
06.07.2020 12:00:00 16,3 6,9 - 0,0
06.07.2020 11:00:00 16,0 6,3 - 0,0
06.07.2020 10:00:00 16,1 7,2 16,7 0,0
06.07.2020 09:00:00 15,7 8,0 - 0,0
06.07.2020 08:00:00 14,8 8,1 - 0,0
06.07.2020 07:00:00 13,5 8,4 - 0,0
06.07.2020 06:00:00 12,2 8,1 - 0,0
06.07.2020 05:00:00 11,9 7,9 - 0,0
06.07.2020 04:00:00 11,5 8,0 - 0,0
06.07.2020 03:00:00 12,1 8,1 - 0,0
06.07.2020 02:00:00 12,5 7,9 - 0,0
06.07.2020 01:00:00 13,0 7,8 - 0,0
06.07.2020 00:00:00 13,5 7,5 - 0,0
05.07.2020 23:00:00 13,9 7,2 - 0,0
05.07.2020 22:00:00 14,6 6,6 - 0,0
05.07.2020 21:00:00 15,8 5,4 - 0,0
05.07.2020 20:00:00 17,4 5,6 - 0,0
05.07.2020 19:00:00 18,4 5,1 - 0,0
05.07.2020 18:00:00 18,8 5,9 - 0,0
05.07.2020 17:00:00 19,5 6,1 - 0,0
05.07.2020 16:00:00 20,4 6,8 - 0,0
05.07.2020 15:00:00 20,8 7,2 - 0,0
05.07.2020 14:00:00 21,6 8,5 - 0,0
05.07.2020 13:00:00 20,5 8,0 - 0,0
05.07.2020 12:00:00 20,7 9,7 - 0,0
05.07.2020 11:00:00 19,6 9,5 - 0,0
05.07.2020 10:00:00 18,5 10,5 16,7 0,0
05.07.2020 09:00:00 19,0 13,4 - 0,0
05.07.2020 08:00:00 17,5 15,1 - 0,0
05.07.2020 07:00:00 17,4 14,2 - 0,0
05.07.2020 06:00:00 17,5 14,3 - 0,0
05.07.2020 05:00:00 17,3 14,6 - 0,0
05.07.2020 04:00:00 17,2 14,5 - 0,0
05.07.2020 03:00:00 16,9 14,2 - 0,0
05.07.2020 02:00:00 17,3 14,3 - 0,0
05.07.2020 01:00:00 17,8 14,6 - 0,0
05.07.2020 00:00:00 17,7 15,0 - 0,0
04.07.2020 23:00:00 17,7 15,4 - 0,0
04.07.2020 22:00:00 17,4 15,6 - 0,0
04.07.2020 21:00:00 17,8 15,4 - 0,0
04.07.2020 20:00:00 18,8 15,2 - 0,0
04.07.2020 19:00:00 18,5 15,4 - 0,0
04.07.2020 18:00:00 19,2 15,4 - 0,0
04.07.2020 17:00:00 20,6 15,7 - 0,0
04.07.2020 16:00:00 20,5 15,2 - 0,0
04.07.2020 15:00:00 20,3 15,3 - 0,0
04.07.2020 14:00:00 20,2 14,9 - 0,0
04.07.2020 13:00:00 20,2 15,5 - 0,0
04.07.2020 12:00:00 19,5 14,6 - 0,0
04.07.2020 11:00:00 19,3 14,7 - 0,0
04.07.2020 10:00:00 18,9 15,1 16,7 0,0
04.07.2020 09:00:00 17,8 14,8 - 0,0
04.07.2020 08:00:00 17,2 14,6 - 0,0
04.07.2020 07:00:00 16,5 14,3 - 0,0
04.07.2020 06:00:00 15,7 14,0 - 0,0
04.07.2020 05:00:00 15,1 13,8 - 0,0
04.07.2020 04:00:00 15,5 13,4 - 0,0

tt = temperature
td = dewpoint
tt -20cm = temperature -20cm
rr = precipitation

Next stations